Погода в Санни-Айлс-Бич

США     25°56′01″N   80°07′18″W
темп.,
°C
ветер,
м/с
пор.,
м/с
влажн.,
%
обл.,
%
осадки,
мм/ч
давл.,
гПа
погр.,
м
31 июля, сб
сб3123:00+30ююв547234 4.8 1019674
02:00+30ю556743 6.4 10181003
05:00+30ю4467100 0.1 10171005
08:00+29ююз336914 0.1 1018956
11:00+30ююв22685 0.2 1019779
14:00+30юв657261 0.3 1018591
17:00+30юв777316 0.0 1017664
20:00+30ююв557135 3.1 1018534
1 августа, вс
вс123:00+30ююв346425 5.1 1019864
02:00+30ю446468 5.9 1018958
05:00+29ююв33675 0.0 1017903
08:00+29юв23695 0.0 1018835
11:00+29юв117022 0.1 1019651
14:00+29юв447337 0.8 1019556
17:00+30юв76717 0.0 1018661
20:00+30ю5567100 0.1 10181089
2 августа, пн
пн223:00+30ююв5569100 0.0 1018909
02:00+30ююв447117 0.0 1018904
05:00+30ю347056 0.0 1017954
08:00+29ююв4373100 0.9 1018739
11:00+29ююв4574100 3.6 1018487
14:00+30ююв556726 6.6 10181033
17:00+30ююв55678 0.1 1017941
20:00+30ююв557194 0.1 1017940
3 августа, вт
вт323:00+29юв2371100 2.0 1017459
02:00+30ююв7771100 2.1 10161159
05:00+30ююв6670100 1.3 1015995
08:00+30ююв667078 1.4 10161072
11:00+29ю6774100 4.8 1017726
14:00+29ююв7774100 12.5 1017567
17:00+28вюв5575100 5.5 1015441
20:00+25сз7685100 22.7 1017254
4 августа, ср
ср423:00+28ю4561100 0.8 1016230
02:00+29вюв677425 0.8 1016630
05:00+29юв77716 0.6 10151071
08:00+29ююв887281 4.1 10161023
11:00+30ююв6770100 2.8 10171091
14:00+30ююв6666100 4.5 10171262
17:00+30ююв556628 0.1 10161089
20:00+30юв5566100 0.1 10171070